User: anonymous   Login
Location: Oshawa
(43.9000°N, 78.8670°W)
Time: 14:07:55
(UTC-04:00)
Language:

Explorer 11/Cluster Stage 4 - Orbit

View from above orbital plane
View from above orbital plane
View from above satellite
View from above satellite

Ground track
Ground track

The orbit data is extracted from the following two-line orbital elements,

1 00107U 61013A   18111.88706104  .00000807  00000-0  91355-4 0  9997
2 00107  28.7869 308.0699 0548240  96.9709 269.3509 14.08558192854620
Epoch (UTC): 21 April 2018 21:17:22
Eccentricity: 0.0548240
inclination: 28.7869°
perigee height: 467 km
apogee height: 1261 km
right ascension of ascending node: 308.0699°
argument of perigee: 96.9709°
revolutions per day: 14.08558192
mean anomaly at epoch: 269.3509°
orbit number at epoch: 85462

The dashed part of the orbit path shows where the satellite is in the earth's shadow,  

DLR